Theta_e
353 355 362 362 363 362 364 362 359 360 360 360 361 362 362 362 362 360 359 359 359 357 357 357 357 356 355 355 356 355 355 352 350 348 347 348 350 351 351 352 354 352 346
355 353 361 362 363 364 364 363 362 362 361 361 361 361 362 361 360 359 359 359 358 357 358 358 357 356 354 354 353 352 350 349 348 349 351 353 353 351 349 350 353 350 346
355 353 358 361 363 363 363 363 362 361 361 360 361 361 361 360 359 359 359 359 358 359 359 358 356 355 355 352 350 347 346 346 347 348 350 347 340 355 350 354 352 354 351
356 353 351 361 362 363 363 362 362 361 360 359 359 360 360 359 359 358 359 359 359 359 359 357 355 353 350 348 346 344 345 346 347 349 342 337 335 348 342 346 352 355 355
355 351 353 361 361 362 362 362 361 361 360 359 359 358 359 359 359 359 359 358 358 357 356 354 351 349 347 346 345 345 346 347 348 347 340 340 338 341 336 342 352 356 356
354 350 358 360 360 361 361 360 360 360 360 359 358 358 358 357 357 358 357 356 355 353 351 350 348 347 345 345 346 346 346 347 348 344 345 348 346 347 345 346 347 356 359
353 354 355 359 360 360 361 360 359 359 359 359 358 357 357 356 356 356 355 354 353 352 349 347 346 346 346 346 347 347 348 348 350 349 350 351 351 349 349 350 351 353 359
353 355 354 359 359 359 360 359 359 358 357 357 358 357 356 355 354 354 353 351 349 348 347 346 346 346 347 349 349 350 349 350 350 350 351 350 351 351 352 355 356 356 355
355 353 353 352 356 359 359 359 359 358 357 357 356 356 355 353 351 350 349 348 347 347 346 346 346 347 350 351 351 352 351 352 352 349 350 352 353 354 356 360 359 359 357
354 352 351 351 349 349 353 359 359 358 358 357 356 355 354 351 350 349 348 346 346 347 348 349 350 351 353 353 353 353 351 353 350 349 350 354 356 357 360 359 359 358 359
351 351 350 349 349 347 346 354 358 358 357 357 354 353 348 345 346 346 348 348 348 350 352 353 354 355 355 354 354 349 349 350 350 351 352 353 353 353 354 354 357 358 358
349 350 350 350 351 350 346 351 347 350 352 352 351 349 345 350 350 347 347 346 349 350 352 354 353 353 352 352 353 352 354 353 352 353 353 348 349 349 348 348 349 350 352
349 350 350 352 354 352 349 348 345 344 344 349 353 354 351 347 347 345 345 346 355 351 354 354 354 353 355 355 355 356 356 355 353 352 347 341 342 342 341 340 342 343 346
348 350 351 353 355 354 352 352 350 346 346 345 347 354 352 347 347 349 344 352 355 356 356 357 352 358 359 360 359 356 355 351 348 345 341 336 335 334 335 336 337 339 341
347 350 351 355 356 355 356 353 352 351 348 345 347 349 346 344 347 345 351 354 357 356 356 356 357 360 357 352 349 349 345 344 337 336 339 332 328 329 330 331 332 336 339
348 350 352 354 357 356 356 357 354 354 352 349 345 345 348 346 347 344 351 358 360 358 357 358 355 349 347 343 338 339 332 334 334 335 331 331 326 325 326 328 329 331 335
348 352 354 354 357 357 356 356 355 354 352 347 345 348 347 349 350 350 356 360 361 359 358 356 345 341 337 335 331 329 329 329 331 332 329 326 326 330 323 324 326 326 331
349 350 353 352 355 356 357 356 353 352 350 346 344 344 346 348 349 352 357 358 356 348 344 338 334 330 329 325 325 327 327 330 331 328 327 326 325 323 327 324 323 322 327
349 349 350 352 350 352 357 355 353 354 347 345 343 341 346 346 349 354 358 348 344 338 332 330 329 326 325 325 323 323 331 329 329 325 327 326 326 324 323 326 324 321 323
349 350 350 349 351 352 352 352 347 346 344 343 342 342 348 349 355 360 351 343 342 334 328 326 328 327 325 323 323 323 331 328 328 325 324 324 324 324 323 325 325 325 323
348 348 350 349 353 352 346 341 339 338 340 343 347 350 352 355 357 348 338 332 331 325 325 327 324 323 321 325 321 320 322 327 327 325 324 324 323 323 323 323 324 324 324
347 348 350 350 351 351 345 345 344 345 346 350 354 356 357 352 343 340 337 334 331 328 326 325 321 319 320 325 318 318 313 317 322 321 324 323 323 322 322 323 324 324 323
347 348 349 350 351 350 351 351 353 353 353 348 342 345 344 347 340 339 335 334 331 327 323 321 322 322 320 323 325 317 310 309 312 320 320 321 323 321 322 322 323 322 322
348 350 351 350 350 350 354 354 355 346 346 347 339 343 341 336 336 334 334 332 329 322 324 323 325 325 325 319 320 322 322 319 310 310 317 319 320 320 322 320 322 321 321
349 349 351 351 351 350 353 353 347 349 347 342 339 337 337 337 340 335 332 324 321 321 324 323 325 325 323 320 318 316 318 315 318 313 309 313 317 317 318 319 320 319 320
347 349 348 350 351 352 352 352 351 349 344 339 337 333 331 331 332 327 329 326 323 324 324 324 326 325 324 321 318 316 313 311 311 311 310 312 313 315 317 319 319 318 317
Wind_Speed
17 21 16 16 15 19 18 20 19 17 16 15 15 14 14 14 13 12 12 12 11 11 12 12 11 11 10 9 8 6 5 4 2 1 1 4 5 5 5 5 7 12 6
21 22 18 18 17 19 18 20 19 17 15 15 14 14 14 13 13 11 11 11 11 11 11 10 10 9 8 7 6 4 2 1 2 3 5 11 12 9 7 8 8 6 1
22 22 20 17 18 19 18 19 19 18 15 13 13 13 14 13 13 12 11 10 11 10 9 9 9 7 6 4 3 2 2 3 4 6 8 11 7 10 7 9 9 10 8
21 21 21 17 19 19 17 19 19 18 16 14 13 13 14 13 12 13 11 10 10 9 8 7 6 5 4 3 3 3 4 5 7 9 11 6 7 10 4 8 12 13 11
20 20 18 18 19 21 18 18 18 18 17 15 13 12 13 12 11 10 10 9 8 7 5 5 4 3 3 3 4 5 6 7 9 12 6 7 7 5 1 9 10 14 14
21 19 21 16 17 19 20 19 18 17 17 15 13 13 12 11 10 8 8 7 6 5 3 3 3 3 4 4 5 6 7 9 12 9 4 4 7 10 8 11 11 13 12
21 19 20 17 16 17 18 18 18 16 16 15 13 12 12 11 10 8 7 5 4 3 2 2 3 3 5 6 7 8 8 10 12 8 7 5 6 8 11 12 13 12 14
19 19 19 17 17 16 17 17 18 16 15 14 13 12 11 10 8 7 6 4 2 1 1 2 3 5 5 6 7 8 9 9 12 7 8 7 12 9 11 12 13 13 13
19 18 17 18 16 15 15 16 16 15 14 13 12 10 10 10 8 6 4 3 2 2 3 4 5 6 7 7 8 8 10 10 11 5 8 5 13 11 12 12 12 13 14
19 19 18 16 17 15 14 13 14 14 13 12 11 10 9 8 6 5 4 4 2 4 5 6 7 7 8 9 8 8 10 14 9 7 6 9 12 14 13 15 16 14 12
17 18 19 18 16 16 16 14 13 14 13 12 11 9 9 7 7 7 8 4 4 6 8 8 8 8 10 14 10 8 11 4 7 5 4 14 13 14 15 15 16 17 16
20 19 18 17 17 15 12 14 13 12 11 10 9 9 6 5 3 3 1 2 5 5 10 9 8 9 12 5 3 12 5 7 6 6 10 16 13 14 15 18 19 19 20
18 16 18 15 14 15 12 11 7 8 7 7 8 7 4 5 4 4 1 3 1 8 5 5 5 4 7 7 6 6 7 8 6 6 13 15 13 14 15 17 18 19 19
20 18 17 16 13 13 10 9 9 7 7 7 8 8 6 5 4 1 2 2 3 2 4 3 4 4 5 6 7 9 8 8 7 6 12 14 12 14 16 18 18 19 19
19 18 17 16 14 12 11 9 8 7 7 7 8 9 6 4 3 3 0 3 3 3 3 4 4 6 6 7 8 9 8 7 8 6 4 12 10 13 16 17 18 18 19
18 18 17 16 15 14 12 11 9 8 8 8 7 8 8 5 4 2 3 2 2 3 6 5 6 8 8 9 7 7 7 7 6 7 6 3 8 10 14 18 17 17 17
17 17 18 17 17 15 13 11 10 9 9 8 8 9 9 7 6 4 3 2 3 4 4 6 9 5 5 6 7 6 7 5 6 6 6 6 5 5 8 14 17 15 16
19 19 18 16 17 16 13 11 9 9 9 8 8 9 11 10 8 7 5 5 7 7 7 6 5 5 6 7 7 6 7 4 4 5 5 6 7 8 6 13 13 11 15
20 20 19 17 16 16 13 10 10 10 8 9 9 9 13 13 13 10 7 8 10 8 6 4 4 4 6 8 8 5 4 3 3 4 6 8 6 8 8 11 12 5 10
19 19 17 15 15 15 12 9 9 9 9 8 8 9 12 10 11 8 8 8 6 8 9 6 4 7 8 10 10 6 5 4 3 4 7 6 6 9 10 11 10 8 8
18 15 21 17 15 13 12 11 11 9 8 8 7 8 10 8 10 9 9 9 8 8 9 9 5 7 7 9 9 8 6 5 4 6 4 5 7 10 11 10 7 8 9
19 20 18 20 19 14 10 8 6 8 8 7 5 3 6 11 12 11 10 9 8 8 9 11 10 7 7 9 7 10 6 3 5 6 5 6 7 9 10 11 8 9 9
18 19 18 19 18 15 13 9 7 6 4 5 6 6 8 12 12 12 11 9 9 6 8 7 7 7 2 6 5 4 6 5 11 4 2 5 7 9 9 10 8 9 9
17 15 16 17 17 15 15 12 10 9 9 8 6 7 10 12 11 12 11 10 9 3 6 2 7 3 3 6 5 4 6 8 6 8 5 10 8 10 9 9 8 9 10
15 14 13 14 15 14 14 9 9 8 9 8 8 11 12 11 12 12 12 10 6 6 4 7 9 3 3 4 5 6 7 8 9 8 12 10 10 9 10 10 8 9 9
14 15 12 15 14 13 13 11 11 10 10 10 11 9 8 8 8 10 9 9 7 5 6 3 8 5 2 2 5 7 8 9 9 8 10 11 11 9 9 6 7 6 7
Wind_Direction
150 140 149 145 146 147 143 137 137 139 142 143 147 147 141 130 133 133 130 124 120 116 111 109 107 104 102 100 94 86 82 77 59 31 273 263 256 256 261 262 250 251 119
147 147 151 149 148 140 143 136 136 134 140 146 148 144 136 132 132 132 129 126 127 122 120 116 110 105 99 93 86 82 79 41 314 292 283 254 228 222 251 261 271 300 178
147 149 155 153 147 140 142 136 135 135 141 145 143 144 134 135 137 132 130 135 133 130 125 119 113 104 96 92 85 47 355 318 302 292 276 265 331 186 248 265 265 254 251
146 151 153 158 148 139 141 139 138 137 139 140 143 144 135 137 137 137 139 138 134 129 122 115 108 103 99 74 32 352 325 321 310 297 269 323 315 150 229 278 261 251 250
151 151 146 158 150 142 145 142 139 139 140 139 145 142 134 134 139 138 138 136 133 124 122 124 119 105 62 18 349 335 328 321 305 278 311 316 333 69 284 285 270 243 243
155 154 140 153 152 146 146 143 140 141 138 141 145 138 134 137 137 133 129 128 125 122 111 85 57 19 2 350 333 327 321 314 302 282 342 337 278 37 324 298 289 279 269
154 152 151 150 151 146 145 143 139 139 139 141 143 142 140 142 138 133 126 126 121 100 66 20 6 349 335 330 327 323 317 314 296 314 322 316 347 357 311 301 290 284 263
152 147 146 150 150 149 148 145 140 141 142 139 142 141 141 140 138 132 133 122 91 62 32 338 329 327 319 313 311 312 310 306 296 322 324 320 36 345 317 302 289 283 277
155 156 156 159 152 149 149 148 141 142 143 140 136 132 133 132 135 131 123 103 49 343 329 323 320 314 308 306 303 301 300 296 289 344 305 316 11 333 317 297 285 272 263
161 154 160 159 161 165 158 146 143 142 139 134 129 132 125 126 128 132 171 126 16 324 316 312 303 302 298 293 293 292 291 273 274 306 307 37 357 344 345 345 337 322 289
169 162 165 165 162 169 161 153 147 144 139 132 137 133 159 173 167 169 70 46 328 318 307 296 296 296 292 262 239 256 269 327 318 347 339 33 12 2 2 2 1 356 342
173 169 166 170 164 165 159 155 173 162 171 176 173 166 192 125 104 335 98 217 258 267 266 259 264 267 250 310 209 212 294 327 306 312 65 41 16 17 12 8 7 4 1
172 173 169 170 168 169 163 170 169 169 166 171 167 175 139 165 165 205 258 202 262 184 274 240 228 278 349 322 333 333 332 321 325 328 65 45 26 23 17 12 10 6 1
177 177 169 170 175 182 159 178 169 172 169 172 173 173 158 198 165 270 308 328 231 305 344 313 318 347 320 324 334 328 337 330 351 323 93 56 28 21 17 14 10 4 2
176 174 174 170 176 179 178 176 178 168 179 165 167 179 182 185 173 220 45 289 310 335 319 310 340 359 348 332 335 338 350 337 341 344 43 82 39 23 17 11 7 4 360
179 175 172 173 184 179 195 171 178 183 155 177 173 169 182 193 160 169 197 261 335 324 18 354 26 11 349 330 338 344 326 352 354 346 347 47 96 43 20 13 7 1 359
179 172 168 184 188 186 192 183 191 175 171 177 174 172 186 190 169 190 192 206 52 33 4 18 21 355 313 330 323 328 317 343 358 343 336 342 348 96 36 19 360 357 1
176 177 171 182 183 183 191 195 192 172 183 179 176 172 181 180 178 194 186 94 72 60 55 44 14 351 355 347 330 327 322 333 353 324 353 336 349 343 344 25 352 351 6
181 177 178 178 182 185 185 188 193 173 189 184 183 179 182 184 180 197 141 135 131 119 96 58 24 10 350 351 314 335 324 322 315 351 329 327 352 339 339 353 338 356 10
183 180 176 177 183 176 175 186 188 182 190 186 186 189 182 188 180 156 140 128 136 131 126 102 76 38 20 342 312 325 299 290 304 333 315 305 350 332 340 342 327 351 1
180 170 183 173 182 183 170 187 179 185 182 190 197 184 185 177 110 116 98 88 66 57 56 60 58 67 39 357 315 342 289 235 259 290 319 319 346 327 328 339 334 343 341
183 184 180 183 181 180 179 187 169 181 184 187 184 191 151 111 118 129 131 121 124 117 86 61 48 44 17 15 317 304 315 286 206 339 291 301 348 320 333 338 335 340 338
188 188 184 185 181 182 166 177 170 127 150 107 91 95 119 126 123 128 128 128 120 105 87 85 74 72 1 289 305 325 316 328 333 175 304 311 336 330 327 328 334 339 339
189 185 183 185 179 180 178 184 171 183 182 124 131 125 119 131 137 133 132 130 114 66 101 88 116 119 217 279 310 237 258 297 306 314 321 317 316 325 342 328 317 329 349
176 171 178 181 178 180 184 184 169 185 122 132 137 130 129 133 146 137 141 140 124 117 160 174 106 154 256 309 315 311 298 275 250 277 302 320 319 331 332 319 338 322 342
163 172 170 180 175 170 176 174 194 150 160 146 153 145 146 146 155 146 166 138 137 149 160 145 111 163 197 300 303 298 287 306 303 305 300 303 316 326 316 307 318 334 336